Location: Round Knob
(37.2473°N, 88.7376°W)
Time: 12:35:06
(UTC+00:00)

Aureole 3 Rocket - Pass Details

Date: 29 October 2020
Orbit: 399 x 1739 km, 82.5° (Epoch: 04 December)

Event Time Altitude Azimuth Distance (km) Brightness Sun altitude
Rises 23:23:01 0° 172° (S) 2,534 6.3 -5.3°
Reaches altitude 10° 23:24:54 10° 166° (SSE) 1,763 5.4 -5.7°
Maximum altitude 23:28:35 50° 90° (E) 806 3.3 -6.4°
Drops below altitude 10° 23:33:36 10° 16° (NNE) 2,399 5.8 -7.4°
Sets 23:36:30 0° 12° (NNE) 3,570 6.7 -7.9°
